SCP
0 0 0 0 0 0 0 0 1 1 1 2 3 3 3 3 3 3 2 2 2 2 2 2 3 4 4 3 3 3 4 4 4 4 3 3 3 3 2 2 2 1 1 2
0 0 0 0 0 0 0 1 1 1 2 3 3 3 3 2 2 2 2 2 2 2 2 2 2 3 3 3 3 3 4 4 4 4 4 4 4 3 3 3 2 2 2 2
0 0 0 0 0 0 1 1 2 2 2 2 2 2 2 2 2 2 2 1 2 2 2 2 2 2 3 3 3 3 4 5 5 5 5 5 5 5 4 4 3 3 2 2
0 0 0 0 0 1 1 1 1 2 2 2 2 2 1 1 2 2 2 1 1 1 2 2 2 3 4 4 3 3 4 6 6 6 6 6 5 5 5 5 4 3 3 2
0 0 0 0 1 1 1 1 1 1 1 2 3 2 1 1 2 2 2 2 1 1 1 2 2 3 5 5 4 3 4 5 6 7 7 7 6 5 6 6 5 4 3 2
0 0 0 1 1 1 1 1 1 1 1 2 3 2 1 1 2 2 2 2 1 1 1 1 2 3 4 5 4 3 4 5 6 7 7 6 5 6 7 7 6 4 3 3
0 0 1 1 1 1 1 1 1 0 1 2 2 2 1 1 1 2 2 1 1 1 1 1 2 3 4 5 4 4 4 5 6 6 5 4 4 5 6 5 4 4 4 4
0 0 1 1 1 1 1 1 1 0 1 2 2 1 1 1 1 1 1 1 1 1 1 1 2 3 4 4 4 4 4 5 6 6 4 3 3 4 4 3 3 3 3 3
1 1 1 1 1 1 0 0 0 0 1 2 2 1 1 0 0 0 1 1 1 1 1 1 2 3 4 4 4 4 4 6 8 7 5 3 3 3 3 2 2 2 2 2
1 1 1 1 1 0 0 0 0 1 1 1 2 1 1 0 0 0 1 1 2 1 1 1 2 3 3 4 4 5 6 8 8 7 5 4 3 3 2 2 1 2 2 2
1 1 1 1 0 0 0 0 0 1 1 1 1 1 0 0 0 1 1 2 2 2 2 2 2 2 3 4 5 6 7 8 7 6 5 4 3 3 2 1 1 1 2 2
1 1 1 1 0 0 0 0 0 0 0 0 0 0 0 0 0 1 1 2 2 2 2 1 1 2 3 5 6 7 8 7 6 6 5 4 3 2 2 1 1 1 2 1
0 0 0 0 0 0 0 0 0 0 0 0 0 0 0 0 0 1 1 1 2 2 1 1 1 1 2 4 6 7 8 7 6 5 5 4 3 3 2 1 1 1 1 1
0 0 0 0 0 0 0 0 0 0 0 0 0 0 0 0 0 0 1 1 1 1 1 1 1 0 1 2 4 6 6 5 5 5 5 4 3 3 2 2 1 1 0 0
0 0 0 0 0 0 0 0 0 0 0 0 0 0 0 0 0 0 1 1 1 1 1 0 0 0 0 1 2 3 4 4 4 4 4 3 3 3 2 2 2 1 1 0
0 0 0 0 0 0 0 0 0 0 0 0 0 0 0 0 0 1 1 1 1 1 0 0 0 0 0 1 1 2 3 3 3 3 2 2 2 2 2 2 1 1 1 1
0 0 1 1 0 0 0 0 0 0 0 0 0 0 0 0 0 1 1 1 1 1 0 0 0 0 0 1 1 2 2 2 2 2 2 1 1 1 2 1 1 1 1 1
1 1 1 1 1 0 0 0 0 0 0 0 0 0 0 0 1 1 1 1 1 1 1 1 0 0 0 1 1 1 1 1 1 1 1 1 1 1 2 1 1 1 1 1
1 1 1 1 0 0 0 0 0 0 0 0 0 0 0 0 1 1 1 1 1 1 1 1 1 0 0 1 1 1 1 1 1 1 1 1 1 1 1 1 1 0 0 0
1 1 1 1 0 0 0 0 0 1 0 0 0 0 0 1 1 1 1 2 2 2 1 1 1 1 1 1 1 1 1 1 1 1 0 0 0 1 1 1 0 0 0 0
0 1 1 1 1 1 1 1 1 2 2 1 1 1 1 1 1 1 2 2 2 2 1 1 1 1 1 1 1 1 1 1 1 1 0 0 0 0 0 0 0 0 0 0
0 0 0 1 1 1 1 1 2 2 3 3 3 3 2 2 2 2 2 2 1 1 1 1 1 1 1 1 2 2 2 2 1 1 0 0 0 0 0 0 0 0 0 0
0 0 0 0 1 1 1 1 1 2 3 4 4 4 4 3 3 2 2 1 1 0 0 0 0 0 0 1 2 2 2 2 1 1 1 0 0 0 0 0 0 0 0 0
0 0 0 0 0 0 0 1 1 2 2 3 3 3 3 3 2 2 2 1 0 0 0 0 0 0 0 1 1 2 2 2 1 1 1 1 1 1 1 1 0 0 0 0
0 0 0 1 1 1 1 0 0 1 1 2 2 2 2 1 1 1 1 1 0 0 0 0 0 0 0 1 1 1 2 2 2 2 1 1 1 1 1 0 0 0 0 0
0 0 1 1 1 1 1 0 0 0 1 1 1 1 1 0 1 1 1 1 0 0 0 1 0 0 0 1 1 1 1 2 2 2 1 1 1 1 1 0 0 0 0 0
0 0 1 1 1 1 0 0 0 0 0 1 1 1 0 0 0 0 0 0 0 0 1 1 1 0 1 1 1 1 1 1 2 1 1 1 1 1 0 0 0 0 0 0
Wind_Speed
4 3 3 4 5 6 8 8 10 7 5 3 2 1 1 1 0 0 0 1 1 1 2 1 1 2 1 1 1 1 2 2 2 2 2 2 2 2 2 3 4 3 3 4
6 4 4 5 6 6 7 7 7 7 5 3 2 1 0 0 1 1 1 1 1 1 2 2 2 2 1 1 1 2 2 2 2 2 2 2 3 3 3 3 3 3 4 4
6 4 7 8 6 7 6 4 6 6 3 1 1 1 1 0 1 1 2 2 2 2 2 2 2 2 2 2 2 2 2 3 3 3 3 3 3 2 3 3 3 3 4 4
5 6 9 1 3 1 3 2 3 3 2 1 1 1 1 1 1 1 2 3 2 3 3 3 3 2 2 2 2 2 3 3 3 3 3 3 3 3 3 3 4 4 4 4
6 8 6 3 2 3 4 3 1 2 1 0 1 2 1 1 2 2 3 3 3 3 3 3 3 2 2 2 2 3 3 3 4 4 4 4 5 5 4 4 4 5 4 4
6 8 7 1 2 1 4 4 2 1 1 1 2 4 1 2 2 2 3 2 2 3 3 3 3 3 3 3 3 3 4 4 4 4 5 5 5 5 5 5 5 5 5 5
8 8 3 3 2 4 6 1 4 1 1 1 1 3 3 2 2 2 3 3 3 3 3 3 3 3 4 4 4 4 4 4 4 5 5 5 5 5 5 5 5 5 5 5
6 8 2 4 3 2 2 3 1 1 0 0 0 1 1 1 2 2 3 3 4 3 4 3 3 4 5 5 5 5 5 5 5 5 5 4 4 5 5 5 5 5 5 5
3 1 4 3 1 1 1 1 0 0 0 1 2 1 1 1 2 2 3 3 4 4 4 4 4 4 6 6 5 5 5 5 5 6 5 5 5 5 5 5 5 4 4 4
3 2 1 1 2 1 1 1 1 1 1 2 2 2 2 1 2 2 3 3 3 4 4 4 4 5 6 6 5 5 6 6 6 5 5 4 4 4 4 4 4 4 4 4
5 4 2 2 2 2 1 1 1 1 1 2 2 2 2 2 2 2 3 3 3 4 5 5 5 5 6 5 5 5 6 6 6 5 5 4 4 4 5 4 3 4 5 4
4 3 4 3 2 2 2 2 2 2 2 1 2 2 3 3 2 3 3 4 4 5 5 6 5 5 5 5 5 5 5 5 5 4 4 4 4 4 3 4 3 3 4 6
4 4 3 3 3 3 3 3 2 2 2 2 2 3 3 3 3 3 3 4 5 5 5 5 5 5 5 5 5 5 5 5 4 4 3 3 4 3 3 3 5 5 5 5
3 3 4 4 4 3 3 3 2 2 2 2 3 3 3 3 3 3 4 5 5 5 5 5 5 5 5 5 4 4 4 4 4 3 3 3 3 3 3 3 3 3 4 5
5 6 5 4 3 4 4 3 3 3 3 3 3 3 3 3 4 4 4 4 4 5 5 5 5 5 5 4 4 4 4 3 3 3 3 2 3 3 3 4 3 3 1 2
5 5 5 5 5 5 5 5 4 4 3 3 3 3 4 4 4 4 4 3 4 5 5 5 5 5 4 4 4 3 3 3 4 3 3 2 2 3 3 3 3 2 2 1
5 5 6 5 6 5 5 4 4 4 3 4 4 4 4 4 4 3 3 3 3 3 3 4 4 5 4 4 4 3 2 1 3 3 3 3 3 3 3 3 2 2 2 1
5 5 5 5 5 5 4 4 4 4 4 4 4 4 4 4 4 4 4 4 3 3 3 4 4 5 4 3 3 3 2 2 2 2 2 2 3 3 2 2 2 2 1 2
3 3 4 4 4 4 4 4 4 4 4 4 4 4 4 4 4 4 4 4 4 3 3 4 3 4 3 3 4 3 3 3 2 2 2 2 3 3 2 2 2 2 1 1
1 2 2 2 3 3 3 3 3 3 3 4 4 4 3 3 4 4 3 4 3 3 4 4 4 3 3 3 4 3 3 3 2 2 2 2 2 2 2 2 2 1 1 1
1 1 1 1 1 1 1 2 3 3 3 3 4 3 3 3 4 3 4 3 2 3 4 3 3 3 3 3 4 4 3 3 3 2 2 2 2 2 2 1 2 1 1 1
1 0 1 1 1 1 1 2 2 3 2 2 3 3 3 3 3 3 3 3 2 2 3 3 2 3 4 5 4 4 3 2 2 2 2 2 2 2 2 1 1 1 1 1
0 1 1 2 2 2 2 2 3 3 2 2 3 3 3 3 3 3 2 1 2 1 4 3 3 2 4 5 4 3 3 3 2 2 2 2 2 2 2 1 1 1 1 1
1 1 2 2 2 2 3 3 2 2 2 2 2 2 3 3 3 2 2 1 1 3 4 1 1 3 5 4 3 2 2 2 2 2 2 2 2 2 1 1 1 1 1 1
2 2 2 2 3 2 3 3 2 2 2 2 2 2 3 2 3 2 2 2 0 3 4 1 3 4 4 3 2 2 2 2 2 2 2 2 2 2 2 1 1 1 1 1
2 2 2 3 2 3 2 2 2 2 2 2 2 2 2 2 2 2 2 2 2 3 4 2 1 3 2 2 2 2 2 1 1 1 2 2 3 2 2 2 2 1 1 1
3 2 2 2 2 2 3 2 2 2 2 3 3 2 2 2 2 2 2 2 2 2 2 2 2 2 1 2 2 2 2 2 1 1 2 2 2 2 2 2 2 2 2 1
Wind_Direction
261 282 276 263 253 239 248 273 279 285 282 317 342 329 348 352 8 275 335 350 14 11 354 348 352 336 333 308 290 272 257 239 231 228 225 233 229 233 243 246 239 234 234 236
230 222 236 253 254 246 249 261 264 265 277 9 14 27 1 325 314 310 327 356 11 11 355 351 339 326 326 308 290 269 266 263 248 233 221 228 233 233 237 246 253 245 243 246
238 218 241 244 249 244 240 260 276 279 313 6 357 346 296 329 352 332 329 341 341 339 336 333 325 310 307 311 300 276 266 265 257 239 225 229 237 240 248 252 254 252 248 252
247 226 247 58 76 251 251 269 287 298 307 304 327 14 24 341 328 312 322 322 318 320 329 326 319 312 303 300 288 278 273 265 257 250 238 234 244 246 247 246 246 250 248 246
252 248 252 206 201 241 248 251 290 269 242 201 132 203 164 35 354 321 319 319 312 306 308 315 318 311 289 282 282 278 276 274 266 258 250 241 241 245 245 248 249 248 246 245
246 260 262 76 86 234 243 229 127 171 189 218 231 253 77 51 350 335 328 319 308 306 308 311 309 301 291 289 287 285 283 281 278 269 258 251 250 250 249 248 251 253 251 246
244 252 260 53 123 208 240 57 99 120 169 247 301 338 18 3 336 334 326 317 313 307 305 308 305 296 287 286 284 285 284 279 272 267 260 254 254 252 251 251 253 255 254 246
240 246 236 99 171 236 22 68 110 112 174 164 36 343 330 313 313 316 314 315 314 304 302 303 298 286 280 281 283 282 280 274 270 268 267 263 255 253 253 252 246 244 244 247
279 319 64 114 133 101 81 131 168 210 214 201 226 250 266 270 281 292 302 311 307 298 295 297 293 284 280 282 284 281 276 272 269 267 261 265 261 258 255 250 252 247 246 247
243 209 173 179 190 183 194 222 217 216 220 226 248 271 284 286 289 292 302 308 309 308 301 301 300 293 287 286 283 279 274 271 269 267 260 260 263 263 263 264 263 261 256 255
234 244 243 212 212 228 232 227 230 230 242 255 268 269 276 287 295 299 302 307 307 304 304 304 303 299 294 289 282 276 272 269 271 264 258 254 249 258 259 261 268 275 277 270
265 259 259 251 248 242 240 243 247 259 261 252 259 275 282 290 299 301 304 304 300 298 300 307 307 306 305 296 281 275 272 273 270 262 252 248 242 236 217 235 219 234 269 286
276 275 284 275 265 262 254 256 262 253 246 257 273 277 279 291 303 305 302 301 298 298 303 306 305 306 307 299 287 276 276 278 274 269 261 254 250 249 244 219 210 220 230 246
242 248 250 247 249 247 247 252 253 242 240 250 265 273 274 282 296 299 300 302 301 304 307 306 306 309 310 302 293 285 275 263 262 262 262 260 260 260 260 258 245 235 212 212
240 243 245 243 237 234 229 228 227 226 231 240 247 261 266 274 288 299 306 304 304 305 309 313 318 315 312 308 298 292 287 288 280 277 276 272 268 263 258 256 255 254 252 185
243 235 230 234 229 227 227 227 229 231 233 240 249 262 269 273 285 297 304 305 306 311 318 319 319 316 313 306 293 280 276 303 295 284 272 264 259 258 256 256 257 253 250 261
230 224 221 225 224 226 232 235 236 239 243 244 249 262 269 273 280 290 298 304 300 302 309 315 320 321 315 308 298 293 297 270 255 263 266 269 264 261 259 258 261 257 240 193
236 234 234 231 230 228 230 234 233 237 243 250 252 260 265 270 281 291 296 299 295 298 309 316 327 317 313 312 306 304 295 278 263 272 270 268 278 280 279 268 265 264 254 175
227 232 237 241 241 235 235 237 237 237 242 245 250 260 265 270 279 282 286 291 293 298 319 324 313 291 304 313 303 278 285 288 283 275 276 276 268 278 284 279 279 284 278 243
204 218 233 243 243 234 235 237 238 239 241 243 246 254 262 271 280 281 279 282 307 325 321 319 300 297 295 295 291 282 285 286 285 277 277 281 290 299 295 294 297 301 299 284
162 171 203 224 233 243 248 249 247 246 248 246 247 253 263 271 275 276 278 283 319 327 307 284 277 299 301 309 272 280 278 275 280 288 286 289 293 294 300 314 315 304 291 280
170 198 229 247 266 268 269 262 256 248 243 254 260 259 258 257 258 259 270 297 318 351 295 293 309 342 324 297 271 278 285 287 286 287 290 290 290 290 289 295 296 295 287 283
283 274 276 267 262 265 261 257 250 247 249 259 271 273 272 279 282 278 270 283 306 332 291 317 355 330 297 275 277 285 295 295 289 284 285 285 286 290 291 291 292 289 289 284
287 285 289 286 273 260 258 257 252 253 260 261 259 265 267 264 262 266 288 187 269 283 287 10 288 274 267 267 280 288 290 290 288 287 283 283 284 285 287 289 291 295 295 294
283 282 281 271 256 255 256 254 243 239 256 268 274 263 256 266 283 298 307 307 270 269 287 226 205 241 259 282 289 288 289 312 321 313 300 293 288 291 297 303 299 286 282 275
275 273 277 275 284 285 270 258 253 249 257 265 272 273 274 272 272 269 268 281 288 272 285 298 275 243 272 297 302 309 309 296 268 268 296 298 298 301 305 312 306 299 299 292
271 272 268 270 272 272 270 267 271 275 278 284 288 285 285 285 284 281 280 287 288 281 287 296 301 305 320 333 342 325 305 304 301 289 285 292 301 302 304 303 301 298 294 292